Radiation Dose at Monitoring Post of Fukushima Daini Nuclear Power Station
Date,Time,MP-1(microSv/h),MP-2(microSv/h),MP-3(microSv/h),MP-4(microSv/h),MP-5(microSv/h),MP-6(microSv/h),MP-7(microSv/h),Wind Direction,Wind Velocity(m/s),Rain
2016/03/12,00:00,0.458,0.263,0.474,0.422,0.395,0.214,0.186,north-northwest,6.8,No
2016/03/12,00:10,0.458,0.262,0.473,0.421,0.392,0.215,0.187,north,6.7,No
2016/03/12,00:20,0.457,0.263,0.472,0.420,0.392,0.215,0.186,north,7.1,No
2016/03/12,00:30,0.459,0.264,0.472,0.420,0.394,0.213,0.186,north,7.0,No
2016/03/12,00:40,0.459,0.262,0.473,0.423,0.393,0.214,0.186,north,7.2,No
2016/03/12,00:50,0.458,0.263,0.474,0.421,0.395,0.215,0.187,north,7.5,No
2016/03/12,01:00,0.459,0.263,0.471,0.419,0.393,0.215,0.187,north-northwest,7.1,No
2016/03/12,01:10,0.457,0.262,0.471,0.421,0.393,0.214,0.187,north-northwest,7.1,No
2016/03/12,01:20,0.458,0.262,0.472,0.419,0.394,0.215,0.186,north-northwest,6.6,No
2016/03/12,01:30,0.459,0.263,0.473,0.420,0.394,0.215,0.187,north-northwest,6.5,No
2016/03/12,01:40,0.457,0.263,0.473,0.421,0.394,0.214,0.186,north,6.4,No
2016/03/12,01:50,0.460,0.262,0.473,0.420,0.393,0.215,0.187,north,5.5,No
2016/03/12,02:00,0.458,0.262,0.471,0.420,0.394,0.213,0.187,north,5.9,No
2016/03/12,02:10,0.457,0.262,0.472,0.421,0.395,0.214,0.186,north,6.5,No
2016/03/12,02:20,0.458,0.263,0.472,0.421,0.394,0.215,0.187,north,6.0,No
2016/03/12,02:30,0.459,0.263,0.473,0.420,0.393,0.214,0.185,north,6.7,No
2016/03/12,02:40,0.458,0.264,0.471,0.418,0.392,0.214,0.187,north-northwest,6.0,No
2016/03/12,02:50,0.457,0.263,0.472,0.419,0.392,0.215,0.186,north-northwest,6.3,No
2016/03/12,03:00,0.459,0.264,0.473,0.423,0.395,0.214,0.187,north-northwest,6.1,No
2016/03/12,03:10,0.457,0.264,0.471,0.422,0.394,0.215,0.186,north-northwest,7.1,No
2016/03/12,03:20,0.458,0.265,0.470,0.420,0.394,0.213,0.187,north-northwest,7.3,No
2016/03/12,03:30,0.458,0.264,0.471,0.421,0.393,0.214,0.187,north,7.5,No
2016/03/12,03:40,0.457,0.263,0.471,0.421,0.393,0.214,0.188,north,7.1,No
2016/03/12,03:50,0.458,0.264,0.471,0.423,0.394,0.215,0.186,north,6.2,No
2016/03/12,04:00,0.458,0.263,0.472,0.420,0.394,0.214,0.186,north,6.8,No
2016/03/12,04:10,0.458,0.262,0.472,0.420,0.393,0.215,0.187,north,6.1,No
2016/03/12,04:20,0.458,0.262,0.472,0.419,0.392,0.213,0.186,north,6.8,No
2016/03/12,04:30,0.457,0.262,0.474,0.420,0.392,0.213,0.186,north,3.4,No
2016/03/12,04:40,0.459,0.263,0.474,0.422,0.394,0.213,0.187,north,5.8,No
2016/03/12,04:50,0.458,0.264,0.473,0.420,0.394,0.214,0.187,north,6.2,No
2016/03/12,05:00,0.458,0.262,0.471,0.421,0.394,0.215,0.187,north,6.8,No
2016/03/12,05:10,0.459,0.262,0.472,0.420,0.392,0.216,0.187,north,6.4,No
2016/03/12,05:20,0.458,0.263,0.473,0.420,0.393,0.214,0.186,north,6.7,No
2016/03/12,05:30,0.457,0.262,0.471,0.420,0.394,0.213,0.185,north,6.6,No
2016/03/12,05:40,0.459,0.263,0.471,0.421,0.395,0.214,0.185,north,6.4,No
2016/03/12,05:50,0.458,0.262,0.472,0.418,0.393,0.214,0.186,north,6.3,No
2016/03/12,06:00,0.458,0.263,0.473,0.420,0.393,0.214,0.187,north-northwest,6.1,No
2016/03/12,06:10,0.456,0.262,0.472,0.420,0.393,0.213,0.187,north,5.9,No
2016/03/12,06:20,0.459,0.262,0.472,0.420,0.393,0.214,0.188,north-northwest,5.7,No
2016/03/12,06:30,0.457,0.264,0.472,0.421,0.394,0.214,0.185,north,5.7,No
2016/03/12,06:40,0.458,0.263,0.474,0.420,0.392,0.215,0.185,north-northwest,5.7,No
2016/03/12,06:50,0.458,0.262,0.471,0.422,0.393,0.213,0.186,north-northwest,5.6,No
2016/03/12,07:00,0.459,0.263,0.473,0.420,0.392,0.214,0.186,north-northwest,5.4,No
2016/03/12,07:10,0.458,0.262,0.471,0.421,0.393,0.214,0.186,north,4.9,No
2016/03/12,07:20,0.458,0.263,0.473,0.418,0.393,0.214,0.186,north,4.4,No
2016/03/12,07:30,0.459,0.263,0.473,0.418,0.394,0.214,0.187,north-northwest,3.4,No
2016/03/12,07:40,0.457,0.262,0.472,0.418,0.392,0.215,0.187,north-northwest,3.3,No
2016/03/12,07:50,0.458,0.262,0.470,0.420,0.392,0.215,0.186,north,4.8,No
2016/03/12,08:00,0.459,0.263,0.470,0.418,0.395,0.214,0.186,north,4.5,No
2016/03/12,08:10,0.458,0.263,0.473,0.419,0.395,0.213,0.186,north-northwest,3.9,No
2016/03/12,08:20,0.457,0.262,0.472,0.420,0.394,0.214,0.186,north-northwest,3.9,No
2016/03/12,08:30,0.460,0.262,0.473,0.419,0.393,0.213,0.186,north,3.4,No
2016/03/12,08:40,0.459,0.262,0.470,0.417,0.394,0.215,0.186,northeast,1.6,No
2016/03/12,08:50,0.459,0.262,0.471,0.420,0.395,0.214,0.186,northeast,3.3,No
2016/03/12,09:00,0.459,0.261,0.473,0.418,0.392,0.215,0.185,northeast,4.2,No
2016/03/12,09:10,0.461,0.263,0.471,0.420,0.391,0.213,0.186,northeast,3.6,No
2016/03/12,09:20,0.459,0.262,0.471,0.420,0.394,0.215,0.185,northeast,4.2,No
2016/03/12,09:30,0.456,0.261,0.473,0.420,0.393,0.213,0.186,northeast,4.6,No
2016/03/12,09:40,0.459,0.263,0.472,0.418,0.392,0.213,0.187,northeast,4.2,No
2016/03/12,09:50,0.458,0.263,0.470,0.419,0.395,0.213,0.187,northeast,5.0,No
2016/03/12,10:00,0.458,0.263,0.472,0.421,0.394,0.213,0.187,northeast,4.5,No
2016/03/12,10:10,0.457,0.264,0.472,0.420,0.394,0.215,0.187,northeast,5.5,No
2016/03/12,10:20,0.456,0.262,0.472,0.421,0.396,0.213,0.186,northeast,5.0,No
2016/03/12,10:30,0.460,0.263,0.471,0.417,0.394,0.215,0.187,northeast,4.7,No
2016/03/12,10:40,0.457,0.263,0.472,0.422,0.396,0.214,0.187,northeast,4.9,No
2016/03/12,10:50,0.458,0.261,0.470,0.420,0.394,0.214,0.186,northeast,4.9,No
2016/03/12,11:00,0.459,0.263,0.471,0.422,0.394,0.214,0.187,northeast,5.1,No
2016/03/12,11:10,0.458,0.262,0.470,0.420,0.397,0.214,0.188,north-northeast,4.2,No
2016/03/12,11:20,0.461,0.263,0.471,0.423,0.393,0.215,0.186,northeast,4.4,No
2016/03/12,11:30,0.460,0.265,0.472,0.420,0.398,0.213,0.186,northeast,4.5,No
2016/03/12,11:40,0.460,0.263,0.470,0.422,0.394,0.216,0.186,northeast,4.5,No
2016/03/12,11:50,0.463,0.263,0.472,0.422,0.396,0.215,0.187,northeast,3.3,No
2016/03/12,12:00,0.458,0.263,0.471,0.422,0.396,0.214,0.186,northeast,4.2,No
2016/03/12,12:10,0.461,0.264,0.470,0.423,0.396,0.215,0.187,northeast,3.5,No
2016/03/12,12:20,0.460,0.264,0.473,0.422,0.395,0.214,0.187,northeast,3.2,No
2016/03/12,12:30,0.460,0.264,0.469,0.421,0.397,0.214,0.187,northeast,4.3,No
2016/03/12,12:40,0.460,0.263,0.471,0.422,0.394,0.216,0.188,east-northeast,3.6,No
2016/03/12,12:50,0.460,0.264,0.470,0.421,0.397,0.214,0.188,northeast,3.0,No
2016/03/12,13:00,0.459,0.263,0.469,0.423,0.396,0.216,0.187,northeast,3.9,No
2016/03/12,13:10,0.461,0.262,0.474,0.422,0.394,0.214,0.186,northeast,3.3,No
2016/03/12,13:20,0.460,0.262,0.470,0.422,0.397,0.215,0.188,east-northeast,3.3,No
2016/03/12,13:30,0.460,0.264,0.474,0.424,0.394,0.214,0.187,northeast,3.1,No
2016/03/12,13:40,0.462,0.263,0.472,0.421,0.394,0.215,0.186,east-northeast,2.8,No
2016/03/12,13:50,0.460,0.263,0.472,0.423,0.395,0.214,0.187,east-northeast,2.6,No
2016/03/12,14:00,0.460,0.265,0.473,0.422,0.395,0.216,0.188,east-northeast,2.8,No
2016/03/12,14:10,0.462,0.261,0.471,0.421,0.395,0.214,0.188,northeast,3.0,No
2016/03/12,14:20,0.460,0.264,0.470,0.423,0.395,0.215,0.187,northeast,2.8,No
2016/03/12,14:30,0.459,0.263,0.473,0.420,0.393,0.215,0.188,east-northeast,2.2,No
2016/03/12,14:40,0.461,0.263,0.471,0.421,0.394,0.216,0.188,east,2.2,No
2016/03/12,14:50,0.459,0.263,0.473,0.424,0.396,0.215,0.188,northeast,2.2,No
2016/03/12,15:00,0.460,0.263,0.474,0.420,0.396,0.215,0.188,east-northeast,2.3,No
2016/03/12,15:10,0.461,0.262,0.469,0.422,0.395,0.214,0.188,east-northeast,2.4,No
2016/03/12,15:20,0.460,0.263,0.473,0.422,0.395,0.214,0.187,east-northeast,0.7,Yes
2016/03/12,15:30,0.463,0.265,0.473,0.422,0.395,0.215,0.187,east-northeast,1.7,No
2016/03/12,15:40,0.460,0.263,0.472,0.423,0.396,0.213,0.188,east-northeast,1.9,No
2016/03/12,15:50,0.460,0.262,0.476,0.423,0.395,0.214,0.188,northeast,2.4,No
2016/03/12,16:00,0.462,0.264,0.473,0.421,0.394,0.215,0.188,east,2.2,No
2016/03/12,16:10,0.462,0.264,0.474,0.424,0.396,0.215,0.188,east-northeast,2.2,No
2016/03/12,16:20,0.460,0.264,0.475,0.422,0.394,0.215,0.187,east,0.8,No
2016/03/12,16:30,0.462,0.264,0.472,0.421,0.394,0.215,0.188,southeast,1.5,No
2016/03/12,16:40,0.462,0.263,0.474,0.423,0.396,0.215,0.188,southeast,1.0,No
2016/03/12,16:50,0.459,0.263,0.473,0.423,0.396,0.215,0.187,-,CALM,No
2016/03/12,17:00,0.462,0.263,0.471,0.422,0.394,0.216,0.188,-,CALM,No
2016/03/12,17:10,0.460,0.264,0.472,0.423,0.395,0.215,0.188,south-southeast,0.5,No
2016/03/12,17:20,0.460,0.264,0.475,0.423,0.395,0.214,0.187,east,1.0,No
2016/03/12,17:30,0.462,0.263,0.471,0.422,0.394,0.214,0.187,south-southeast,0.9,No
2016/03/12,17:40,0.461,0.263,0.472,0.423,0.395,0.216,0.188,east,0.5,No
2016/03/12,17:50,0.459,0.263,0.475,0.424,0.397,0.215,0.187,south,0.6,No
2016/03/12,18:00,0.460,0.263,0.475,0.423,0.394,0.215,0.188,south-southwest,0.9,No
2016/03/12,18:10,0.463,0.263,0.471,0.422,0.395,0.214,0.188,-,CALM,No
2016/03/12,18:20,0.458,0.265,0.474,0.423,0.395,0.215,0.187,-,CALM,No
2016/03/12,18:30,0.460,0.265,0.473,0.424,0.396,0.214,0.188,-,CALM,No
2016/03/12,18:40,0.463,0.265,0.474,0.423,0.394,0.215,0.188,-,CALM,No
2016/03/12,18:50,0.461,0.263,0.473,0.423,0.395,0.214,0.187,south-southwest,0.7,No
2016/03/12,19:00,0.460,0.265,0.473,0.425,0.394,0.215,0.188,-,CALM,No
2016/03/12,19:10,0.459,0.264,0.474,0.422,0.395,0.215,0.187,-,CALM,No
2016/03/12,19:20,0.462,0.264,0.472,0.422,0.393,0.214,0.188,-,CALM,No
2016/03/12,19:30,0.462,0.264,0.474,0.422,0.395,0.215,0.188,-,CALM,No
2016/03/12,19:40,0.460,0.263,0.473,0.422,0.395,0.215,0.188,-,CALM,No
2016/03/12,19:50,0.461,0.263,0.472,0.423,0.396,0.216,0.187,west-southwest,0.6,No
2016/03/12,20:00,0.461,0.263,0.472,0.422,0.395,0.215,0.188,-,CALM,No
2016/03/12,20:10,0.461,0.264,0.474,0.424,0.395,0.215,0.188,west-southwest,0.8,No
2016/03/12,20:20,0.462,0.265,0.473,0.425,0.397,0.216,0.188,west-southwest,0.5,No
2016/03/12,20:30,0.462,0.263,0.474,0.422,0.395,0.216,0.188,-,CALM,No
2016/03/12,20:40,0.459,0.264,0.474,0.421,0.394,0.217,0.186,-,CALM,No
2016/03/12,20:50,0.461,0.265,0.473,0.423,0.395,0.216,0.187,southwest,0.9,No
2016/03/12,21:00,0.461,0.264,0.474,0.423,0.396,0.216,0.188,south-southwest,1.0,No
2016/03/12,21:10,0.462,0.264,0.474,0.422,0.395,0.214,0.188,west-southwest,1.5,No
2016/03/12,21:20,0.461,0.264,0.474,0.422,0.393,0.215,0.188,west-southwest,0.8,No
2016/03/12,21:30,0.462,0.264,0.477,0.423,0.394,0.215,0.189,west-northwest,0.8,No
2016/03/12,21:40,0.462,0.264,0.476,0.423,0.396,0.216,0.189,northwest,0.8,No
2016/03/12,21:50,0.461,0.265,0.473,0.422,0.395,0.217,0.188,-,CALM,No
2016/03/12,22:00,0.461,0.263,0.476,0.424,0.396,0.216,0.186,west,1.1,No
2016/03/12,22:10,0.460,0.263,0.475,0.424,0.395,0.215,0.188,west-northwest,0.8,No
2016/03/12,22:20,0.460,0.263,0.474,0.424,0.394,0.215,0.188,west-southwest,1.2,No
2016/03/12,22:30,0.460,0.263,0.472,0.423,0.395,0.213,0.188,southwest,2.0,No
2016/03/12,22:40,0.461,0.263,0.474,0.422,0.394,0.215,0.188,southwest,1.7,No
2016/03/12,22:50,0.460,0.263,0.476,0.423,0.393,0.215,0.188,southwest,1.9,No
2016/03/12,23:00,0.461,0.262,0.474,0.424,0.396,0.216,0.189,southwest,1.8,No
2016/03/12,23:10,0.460,0.264,0.472,0.422,0.395,0.215,0.188,south-southwest,1.0,No
2016/03/12,23:20,0.459,0.262,0.476,0.422,0.395,0.214,0.188,south,0.6,No
2016/03/12,23:30,0.462,0.263,0.474,0.423,0.395,0.215,0.186,-,CALM,No
2016/03/12,23:40,0.462,0.263,0.473,0.423,0.396,0.215,0.189,northwest,0.7,No
2016/03/12,23:50,0.460,0.262,0.472,0.422,0.396,0.216,0.188,west,1.1,No
